Flag for U.S.A. Weather past 2 weeks in Green Bay, Wisconsin, U.S.A.

Now
78 °F

Sunny.


Feels Like: 79 °F
Forecast: 53 / 77 °F
Wind: 18 mph from Southwest

Location: Austin Straubel International Airport

Current Time: May 3, 2015 at 1:13:11 PM

Latest Report: May 3, 2015 at 12:53 PM


Visibility: 10 mi

Pressure: 29.85 "Hg

Humidity: 39%

Dew point: 51 °F

Location of Green BayLocation

Historic Weather in Green Bay — Graph

°F

Green Bay temperature yesterday

Maximum temperature yesterday: 79 °F (at 3:53 PM)
Minimum temperature yesterday: 53 °F (at 5:53 AM)
Average temperature yesterday: 66 °F

Past Weeks' High & Low Weather Summary

 TemperatureHumidityPressure
High79 °F (May 2, 3:53 PM)93% (Apr 20, 12:53 AM)30.21 "Hg (Apr 20, 12:53 AM)
Low30 °F (Apr 24, 3:53 AM)28% (Apr 23, 5:53 PM)29.18 "Hg (Apr 20, 5:53 AM)
Average48 °F58%29.91 "Hg
* Reported Apr 18 11:53 AM — May 3 11:53 AM, Green Bay, Weather by CustomWeather, © 2015

Note: Actual official high and low records may vary slightly from our data, if they occured in-between our weather recording intervals... More about our weather records

Advertising

Green Bay weather history for previous 24 hours

 ConditionsComfort  
Time TempWeatherWind HumidityBarometerVisibility
11:53 AM
Sun, May 3
75 °FSunny.13 mph42%29.86 "Hg10 mi
10:53 AM71 °FPartly sunny.15 mph47%29.87 "Hg10 mi
9:53 AM69 °FScattered clouds.15 mph49%29.87 "Hg10 mi
8:53 AM67 °FPartly sunny.13 mph55%29.88 "Hg10 mi
7:53 AM63 °FSunny.9 mph65%29.88 "Hg9 mi
6:53 AM56 °FPassing clouds.6 mph75%29.88 "Hg10 mi
5:53 AM56 °FClear.3 mph70%29.88 "Hg10 mi
4:53 AM56 °FClear.6 mph72%29.88 "Hg10 mi
3:53 AM57 °FClear.7 mph69%29.87 "Hg10 mi
2:53 AM55 °FClear.5 mph69%29.88 "Hg10 mi
1:53 AM58 °FClear.5 mph62%29.88 "Hg10 mi
12:53 AM60 °FClear.6 mph58%29.88 "Hg10 mi
11:53 PM
Sat, May 2
59 °FClear.6 mph60%29.88 "Hg10 mi
10:53 PM60 °FClear.8 mph56%29.88 "Hg10 mi
9:53 PM63 °FClear.9 mph52%29.88 "Hg10 mi
8:53 PM68 °FSunny.9 mph44%29.87 "Hg10 mi
7:53 PM72 °FPassing clouds.8 mph37%29.85 "Hg10 mi
6:53 PM75 °FSunny.7 mph34%29.85 "Hg10 mi
5:53 PM77 °FPassing clouds.13 mph29%29.86 "Hg10 mi
4:53 PM78 °FScattered clouds.9 mph28%29.86 "Hg10 mi
3:53 PM79 °FPassing clouds.14 mph29%29.87 "Hg10 mi
2:53 PM77 °FScattered clouds.14 mph31%29.90 "Hg10 mi
1:53 PM76 °FSunny.15 mph32%29.92 "Hg10 mi
Weather by CustomWeather, © 2015

See weather overviewHow to use our weather pages